Regional Weather Roundup
Issued by NWS

Home | Current Version | Previous Version | Text Only | Print | Product List | Glossary Off
Versions: 1 2 3 4 5 6 7 8 9 10 11 12 13 14 15 16 17 18 19 20 21 22 23 24 25 26 27 28 29 30 31 32 33 34 35 36 37 38 39 40 41 42 43 44 45 46 47 48 49 50

981
ASUS43 KDMX 070703
RWRIA

WEATHER ROUNDUP FOR IOWA
NATIONAL WEATHER SERVICE DES MOINES IA
100 AM CST SUN FEB 07 2016

NOTE: "FAIR" INDICATES FEW OR NO CLOUDS BELOW 12,000 FEET WITH NO
SIGNIFICANT WEATHER AND/OR OBSTRUCTIONS TO VISIBILITY.

* - THESE STATIONS ARE NOT NWS STATIONS...THUS NOT UNDER NWS
QUALITY CONTROL.  THEY ALSO DO NOT REPORT WEATHER SUCH
AS PRECIPITATION OR FOG.

IAZ001>003-012>014-020>022-031>034-043>046-070800-
   NORTHWEST IOWA

CITY           SKY/WX    TMP DP  RH WIND       PRES   REMARKS
CARROLL *      CLOUDY    34  28  80 SW20      29.87S WCI  22
CHEROKEE *     CLOUDY    32  28  86 SW8       29.83F WCI  25
DENISON *      CLOUDY    32  27  80 W10       29.88S WCI  24
LE MARS *      CLOUDY    32  30  93 S7        29.86R WCI  26
ORANGE CITY *  CLOUDY    32  28  86 W10       29.83S WCI  24
SHELDON *      CLOUDY    32  28  86 SW10      29.80S WCI  24
SIOUX CITY     MOCLDY    26  21  81 SE3       29.87F
SPENCER        CLOUDY    32  26  78 SW15      29.79F WCI  22
STORM LAKE *   CLOUDY    30  30 100 SW16      29.84F WCI  19
$$

IAZ055>058-069>071-079>083-090>094-070800-
   SOUTHWEST IOWA

CITY           SKY/WX    TMP DP  RH WIND       PRES   REMARKS
ATLANTIC *     CLOUDY    34  28  80 SW10      29.91F WCI  26
AUDUBON *      CLOUDY    34  28  80 W7        29.91S WCI  28
CLARINDA *     CLOUDY    36  28  75 W6        29.98R WCI  31
COUNCIL BLFS * CLOUDY    36  28  75 W12       29.93S WCI  27
CRESTON *      PTCLDY    36  28  75 SW9       29.95R WCI  29
HARLAN  *      CLOUDY    27  25  93 SW6       29.95S WCI  20
LAMONI         CLOUDY    36  28  73 S17       29.94F WCI  26
RED OAK *      CLOUDY    34  30  86 S8        29.94F WCI  27
SHENANDOAH *   CLOUDY    36  32  87 SW8       29.96S WCI  29
$$

IAZ047>049-059>061-072>074-084-070800-
   CENTRAL IOWA

CITY           SKY/WX    TMP DP  RH WIND       PRES   REMARKS
AMES           CLOUDY    35  29  78 SW12      29.89S WCI  27
ANKENY *       CLOUDY    39  30  70 SW10      29.91S WCI  32
BOONE *        CLOUDY    36  28  75 SW13      29.85F WCI  27
CHARITON *     CLOUDY    39  28  65 SW17G25   29.92F WCI  30
DES MOINES     CLOUDY    37  27  67 SW12      29.92R WCI  29
GRINNELL*      CLOUDY    36  30  80 SW14      29.91S WCI  27
KNOXVILLE *    CLOUDY    39  28  65 SW13G20   29.91S WCI  32
MARSHALLTOWN   MOCLDY    36  28  73 SW13      29.88S WCI  27
NEWTON *       CLEAR     36  30  80 SW8       29.92R WCI  29
PELLA *        CLOUDY    38  29  69 SW13G22   29.93S WCI  30
$$

IAZ004>006-015-016-023>025-035-036-070800-
   NORTH CENTRAL IOWA

CITY           SKY/WX    TMP DP  RH WIND       PRES   REMARKS
ALGONA *       CLOUDY    32  28  86 S12G20    29.79F WCI  23
CLARION *      CLOUDY    34  28  80 SW18      29.81F WCI  23
ESTHERVILLE    CLOUDY    32  27  81 SW21      29.76F WCI  20
FORT DODGE *   CLOUDY    34  25  69 SW12      29.84F WCI  25
MASON CITY     CLOUDY    34  27  75 SW20      29.80F WCI  23
FOREST CITY *  CLOUDY    32  28  86 S14       29.78F WCI  22
WEBSTER CITY * CLOUDY    36  30  80 SW16      29.83F WCI  26
IOWA FALLS *   CLOUDY    36  30  80 SW18      29.85F WCI  25
$$

IAZ007>011-017>019-026>030-037>042-050>054-066-070800-
   NORTHEAST IOWA

CITY           SKY/WX    TMP DP  RH WIND       PRES   REMARKS
CEDAR RAPIDS   CLOUDY    36  31  82 S16       29.89F WCI  26
CHARLES CITY * CLOUDY    34  34 100 SW14      29.82F WCI  24
CLINTON *      CLOUDY    35  31  85 S12       29.97F WCI  27
DECORAH *      CLOUDY    34  32  93 S8G18     29.82F WCI  27
DUBUQUE        CLOUDY    34  29  82 S16       29.90F WCI  24
MONTICELLO *   CLOUDY    36  30  80 S14       29.90F WCI  27
OELWEIN *      CLOUDY    34  32  93 SW14      29.87F WCI  24
WATERLOO       CLOUDY    36  29  75 SW15      29.87F WCI  27
$$

IAZ064-065-067-068-078-070800-
   EAST CENTRAL IOWA

CITY           SKY/WX    TMP DP  RH WIND       PRES   REMARKS
DAVENPORT      CLOUDY    38  29  70 S13       29.97F WCI  30
IOWA CITY      CLOUDY    37  30  75 S13       29.95F WCI  29
MT. PLEASANT * PTCLDY    38  32  77 S13       29.99F WCI  31
MUSCATINE *    PTCLDY    39  30  70 SW15      29.97F WCI  31
QUAD CITIES    CLOUDY    39  29  67 S13       29.98F WCI  31
$$

IAZ062-063-075>077-085>089-095>099-070800-
   SOUTHEAST IOWA

CITY           SKY/WX    TMP DP  RH WIND       PRES   REMARKS
BURLINGTON     CLOUDY    36  30  79 SW10      30.01F WCI  28
FAIRFIELD *    MIX PCPN  39  28  65 SW17G23   29.95F WCI  30
FORT MADISON * PTCLDY    37  30  75 S12       30.02F WCI  30
KEOKUK *       PTCLDY    37  30  75 S10       30.03F WCI  30
OSKALOOSA *      N/A     37  30  75 SW15      29.93F WCI  28
OTTUMWA        PTCLDY    37  29  72 S16       29.93F WCI  28
WASHINGTON *   PTCLDY    37  32  81 S14       29.96F WCI  29
$$

ABBREVIATIONS USED IN REMARKS
   TC - TEMPERATURES IN CELSIUS
  WCI - WIND CHILL INDEX
   HX - HEAT INDEX
  VSB - VISIBILITY
$$





USA.gov is the U.S. government's official web portal to all federal, state and local government web resources and services.